Location: Brachstadt
(48.6975°N, 10.6755°E)
Time: 11:57:41
(UTC+00:00)

Envisat - Pass Details

Date: 02 December 2022
Orbit: 763 x 765 km, 98.2° (Epoch: 06 February)

Event Time Altitude Azimuth Distance (km) Brightness Sun altitude
Rises 16:16:26 0° 224° (SW) 3,221 7.7 -8.5°
Reaches altitude 10° 16:20:41 10° 259° (WSW) 2,304 7.0 -9.2°
Maximum altitude 16:22:08 11° 275° (W) 2,228 6.5 -9.4°
Drops below altitude 10° 16:23:35 10° 292° (WNW) 2,309 6.2 -9.6°
Sets 16:27:54 0° 327° (NNW) 3,244 6.4 -10.3°
